This is the latest recevied weather packets stored in our database for station/object 9D9-WX. If no packets are shown the sender has not sent any weather packets the latest 10 day(s).
| Time | Temp. | Humidity | Pressure | Rain* | Wind** | Luminosity | Snow |
|---|---|---|---|---|---|---|---|
| 1777392030 | 10.56° C | 86% | 981.4 hPa | 0 mm | - | - | - |
| 1777391108 | 11.11° C | 85% | 980.6 hPa | 0 mm | - | - | - |
| 1777390226 | 11.11° C | 84% | 981.1 hPa | 0 mm | - | - | - |
| 1777389308 | 11.11° C | 84% | 981.1 hPa | 0 mm | - | - | - |
| 1777388431 | 11.67° C | 84% | 981.1 hPa | 0 mm | - | - | - |
| 1777387509 | 12.22° C | 86% | 979.1 hPa | 0 mm | - | - | - |
| 1777386627 | 11.11° C | 86% | 979.9 hPa | 0 mm | - | - | - |
| 1777385708 | 11.11° C | 86% | 979.9 hPa | 0 mm | - | - | - |
| 1777384830 | 11.67° C | 86% | 979.9 hPa | 0 mm | - | - | - |
| 1777383908 | 11.67° C | 91% | 978.7 hPa | 0 mm | - | - | - |
| 1777383027 | 11.67° C | 91% | 978.7 hPa | 0 mm | - | - | - |
| 1777382109 | 10° C | 91% | 978.5 hPa | 0 mm | - | - | - |
| 1777381230 | 10° C | 91% | 978.5 hPa | 0 mm | - | - | - |
| 1777380308 | 10.56° C | 88% | 977.9 hPa | 0 mm | - | - | - |
| 1777379426 | 10.56° C | 88% | 977.9 hPa | 0 mm | - | - | - |
| 1777378508 | 11.11° C | 88% | 977.9 hPa | 0 mm | - | - | - |
| 1777377634 | 11.11° C | 88% | 977.9 hPa | 0 mm | - | - | - |
| 1777376708 | 11.67° C | 90% | 977.1 hPa | 0 mm | - | - | - |
| 1777375828 | 11.67° C | 95% | 977.5 hPa | 0 mm | - | - | - |
| 1777374914 | 12.22° C | 95% | 977.5 hPa | 0.51 mm | - | - | - |
| 1777374034 | 12.78° C | 95% | 977.5 hPa | 0.51 mm | - | - | - |
| 1777373114 | 13.33° C | 90% | 977.5 hPa | 0 mm | - | - | - |
| 1777372227 | 13.33° C | 94% | 976.7 hPa | 0 mm | - | - | - |
| 1777371314 | 13.89° C | 94% | 976.7 hPa | 0.25 mm | - | - | - |
| 1777370433 | 14.44° C | 94% | 976.7 hPa | 0.25 mm | - | - | - |
* Rain latest hour (hover to see other rain measurements)
** Current wind speed in m/s (hover to see current wind gust speed)